Погода в Сисиане

Армения     39°31′10″N   46°01′10″E
темп.,
°C
ветер,
м/с
пор.,
м/с
влажн.,
%
обл.,
%
осадки,
мм/ч
давл.,
гПа
погр.,
м
20 апреля, вт
вт2001:00+9з2260100 0.0 102018
04:00+9з126095 0.0 101919
07:00+9ссз0163100 0.0 101919
10:00+15зюз384195 0.0 10171098
13:00+18зюз81333100 0.0 10152475
16:00+16юз5104530 0.0 10151347
19:00+13юз33579 0.0 101656
22:00+10з226326 0.0 101722
21 апреля, ср
ср2101:00+9юз11601 0.0 101717
04:00+8з126120 0.0 101715
07:00+9зсз12627 0.0 101818
10:00+17юз5123712 0.0 10152114
13:00+19юз610319 0.0 10142674
16:00+13ю665985 0.9 1016624
19:00+11ссз347440 1.8 1017173
22:00+9вюв117221 1.8 101812
22 апреля, чт
чт2201:00+9зсз016942 0.0 101811
04:00+8юз0165100 0.0 101812
07:00+9зюз016397 0.0 101813
10:00+17юз410365 0.0 10162304
13:00+19юз6103011 0.0 10143016
16:00+14зсз385477 0.8 1016952
19:00+10св3483100 1.9 1015144
22:00+9юв2386100 3.7 101883
23 апреля, пт
пт2301:00+8св017920 0.1 101612
04:00+7зюз01744 0.1 101512
07:00+8зюз11740 0.1 101518
10:00+14юз410461 0.1 10132119
13:00+16зюз610370 0.0 10142571
16:00+16зюз610270 0.0 10142566
19:00+11в22555 0.0 101691
22:00+5в339217 0.0 102195
24 апреля, сб
сб2401:00+5в228920 0.0 102092
04:00+3всв11895 0.0 102015
07:00+5ссв11740 0.0 102021
10:00+12юз13445 0.0 1017716
13:00+16зюз46275 0.0 10151755
16:00+17зюз36235 0.0 10141702
19:00+12вюв22567 0.0 101688
22:00+6в22899 0.0 102022